Location: Bittkow
(50.3000°N, 19.0000°E)
Time: 12:36:02
(UTC+00:00)

Cosmos 1934 Rocket - Pass Details

Date: 19 September 2020
Orbit: 937 x 1000 km, 83.0° (Epoch: 23 October)

Event Time Altitude Azimuth Distance (km) Brightness Sun altitude
Rises 03:00:43 0° 344° (NNW) 3,614 7.0 -14.2°
Reaches altitude 10° 03:03:23 10° 336° (NNW) 2,663 6.2 -13.8°
Maximum altitude 03:08:47 35° 273° (W) 1,472 4.5 -12.9°
Drops below altitude 10° 03:14:11 10° 210° (SSW) 2,653 5.9 -12.1°
Sets 03:16:51 0° 202° (SSW) 3,599 6.6 -11.7°
